Time,TemperatureF,DewpointF,PressureIn,WindDirection,WindDirectionDegrees,WindSpeedMPH,WindSpeedGustMPH,Humidity,HourlyPrecipIn,Conditions,Clouds,dailyrainin,SoftwareType,DateUTC
2013-06-14 00:17:00,63.7,55.2,29.99,SE,135,0.0,0.0,74,0.00,,,0.18,open2300-1.11,2013-06-14 05:17:00,
2013-06-14 01:17:00,64.2,55.0,29.99,East,90,2.2,2.9,72,0.00,,,0.18,open2300-1.11,2013-06-14 06:17:00,
2013-06-14 02:17:00,64.2,54.7,30.00,ENE,67,0.0,3.4,71,0.00,,,0.18,open2300-1.11,2013-06-14 07:17:00,
2013-06-14 03:17:00,65.3,55.3,29.98,East,90,1.8,8.3,70,0.00,,,0.18,open2300-1.11,2013-06-14 08:17:00,
2013-06-14 04:17:00,65.8,55.4,29.96,ENE,67,0.0,2.9,69,0.00,,,0.18,open2300-1.11,2013-06-14 09:17:00,
2013-06-14 05:17:00,65.3,56.8,29.94,ESE,112,0.7,5.6,74,0.02,,,0.20,open2300-1.11,2013-06-14 10:17:00,
2013-06-14 06:17:00,66.0,57.1,29.94,East,90,6.0,7.4,73,0.00,,,0.20,open2300-1.11,2013-06-14 11:17:00,
2013-06-14 07:17:00,67.1,57.8,29.93,ENE,67,5.1,6.0,72,0.00,,,0.20,open2300-1.11,2013-06-14 12:17:00,
2013-06-14 08:17:00,66.9,57.6,29.93,NE,45,5.1,6.5,72,0.00,,,0.20,open2300-1.11,2013-06-14 13:17:00,
2013-06-14 09:17:00,68.2,59.6,29.91,SSE,157,8.3,8.3,74,0.00,,,0.20,open2300-1.11,2013-06-14 14:17:00,
2013-06-14 10:17:00,70.2,61.8,29.85,SSE,157,4.2,8.3,75,0.00,,,0.20,open2300-1.11,2013-06-14 15:17:00,
2013-06-14 11:17:00,76.1,66.4,29.81,SSW,202,5.6,7.6,72,0.00,,,0.20,open2300-1.11,2013-06-14 16:17:00,
2013-06-14 12:17:00,81.3,69.3,29.86,WSW,247,0.0,10.5,67,0.00,,,0.20,open2300-1.11,2013-06-14 17:17:00,
2013-06-14 13:17:00,86.4,70.9,29.84,ESE,112,3.8,7.8,60,0.00,,,0.20,open2300-1.11,2013-06-14 18:17:00,
2013-06-14 14:17:00,90.0,71.6,29.82,ENE,67,5.8,9.8,55,0.00,,,0.20,open2300-1.11,2013-06-14 19:17:00,
2013-06-14 15:17:00,92.1,72.4,29.81,SE,135,5.6,10.7,53,0.00,,,0.14,open2300-1.11,2013-06-14 20:17:00,
2013-06-14 16:17:00,92.5,73.3,29.79,South,180,7.4,8.5,54,0.00,,,0.02,open2300-1.11,2013-06-14 21:17:00,
2013-06-14 17:17:00,91.0,73.1,29.76,SE,135,6.3,7.4,56,0.00,,,0.02,open2300-1.11,2013-06-14 22:17:00,
2013-06-14 18:17:00,91.0,72.5,29.74,SSW,202,0.0,6.3,55,0.00,,,0.02,open2300-1.11,2013-06-14 23:17:00,
2013-06-14 19:17:00,88.9,72.2,29.73,South,180,0.0,13.9,58,0.00,,,0.02,open2300-1.11,2013-06-15 00:17:00,
2013-06-14 20:17:00,85.6,63.1,29.77,SSW,202,0.4,8.3,47,0.00,,,0.02,open2300-1.11,2013-06-15 01:17:00,
2013-06-14 21:17:00,82.6,60.2,29.86,NE,45,8.1,8.1,47,0.00,,,0.02,open2300-1.11,2013-06-15 02:17:00,
2013-06-14 22:17:00,76.8,60.4,29.86,NE,45,0.4,9.2,57,0.00,,,0.02,open2300-1.11,2013-06-15 03:17:00,
2013-06-14 23:17:00,75.0,59.2,29.85,ENE,67,0.0,5.6,58,0.00,,,0.02,open2300-1.11,2013-06-15 04:17:00,